CW0454 Weather Reports


Display with metric or nautical units.
time (UTC)temp
F
wind
direction
speed
MPH
gust
MPH
rain 1hr
in
rain 24hr
in
rain mn
in
humidity
%
barometer
mb
20260831203400 83 42 1.0 3.0 0.00 0.02 0.00 79 1017.4
20260831202400 83 42 0.0 3.0 0.00 0.02 0.00 79 1017.5
20260831201400 83 42 0.0 3.0 0.00 0.02 0.00 80 1017.4
20260831200400 83 42 2.0 4.0 0.00 0.02 0.00 80 1017.4
20260831195402 83 42 1.0 4.0 0.00 0.02 0.00 80 1017.4
20260831194423 83 42 2.0 5.0 0.00 0.02 0.00 80 1017.5
20260831193401 83 43 3.0 5.0 0.00 0.02 0.00 79 1017.6
20260831192400 83 44 3.0 5.0 0.00 0.02 0.00 79 1017.8
20260831191400 83 43 3.0 4.0 0.00 0.02 0.00 79 1018.0
20260831190423 83 44 2.0 4.0 0.00 0.02 0.00 79 1018.0
20260831185401 82 44 3.0 4.0 0.00 0.02 0.00 80 1018.1
20260831184400 82 46 2.0 5.0 0.00 0.02 0.00 80 1018.3
20260831183400 82 51 2.0 5.0 0.00 0.02 0.00 80 1018.4
20260831182400 83 51 1.0 7.0 0.00 0.02 0.00 80 1018.3
20260831181400 83 25 2.0 6.0 0.00 0.02 0.00 79 1018.2
20260831180421 83 15 2.0 4.0 0.00 0.02 0.00 79 1018.2
20260831175400 83 15 1.0 4.0 0.00 0.02 0.00 79 1018.2
20260831174401 84 17 2.0 7.0 0.00 0.02 0.00 78 1018.3
20260831173401 84 5 1.0 8.0 0.00 0.02 0.00 79 1018.3
20260831172400 83 37 1.0 6.0 0.00 0.02 0.00 79 1018.6
20260831171401 83 348 1.0 6.0 0.00 0.02 0.00 80 1018.6
20260831170400 83 13 3.0 8.0 0.00 0.02 0.00 80 1018.7
20260831165400 82 35 3.0 5.0 0.00 0.02 0.00 81 1018.6
20260831164401 81 28 1.0 6.0 0.00 0.02 0.00 80 1018.8
20260831163400 82 16 4.0 7.0 0.00 0.02 0.00 80 1018.8
20260831162401 82 1 2.0 7.0 0.00 0.02 0.00 81 1018.9
20260831161401 81 5 1.0 8.0 0.00 0.02 0.00 82 1018.8
20260831160401 81 48 4.0 9.0 0.00 0.02 0.00 83 1018.8
20260831155400 81 30 4.0 9.0 0.00 0.02 0.00 83 1019.0
20260831154401 80 14 2.0 6.0 0.00 0.02 0.00 84 1019.0
20260831153401 80 50 2.0 7.0 0.00 0.02 0.00 85 1018.8
20260831152401 79 25 2.0 11.0 0.00 0.02 0.00 86 1018.9
20260831151401 79 38 3.0 8.0 0.00 0.02 0.00 86 1018.9
20260831150402 79 24 3.0 9.0 0.00 0.02 0.00 87 1018.9
20260831145401 79 333 2.0 9.0 0.00 0.02 0.00 86 1018.8
20260831144402 79 40 4.0 10.0 0.00 0.02 0.00 87 1018.8
20260831143401 78 12 2.0 9.0 0.00 0.02 0.00 88 1018.9
20260831142401 78 11 4.0 10.0 0.00 0.02 0.00 88 1018.7
20260831141401 78 48 3.0 5.0 0.00 0.02 0.00 89 1018.8
20260831140401 77 40 2.0 9.0 0.00 0.02 0.00 90 1018.8
20260831135424 77 19 4.0 9.0 0.00 0.02 0.00 90 1018.8
20260831134402 77 37 2.0 12.0 0.00 0.02 0.00 89 1019.1
20260831133422 77 354 3.0 6.0 0.00 0.02 0.00 89 1019.1
20260831132401 77 34 3.0 8.0 0.00 0.02 0.00 90 1018.9
20260831131401 77 10 4.0 9.0 0.00 0.02 0.00 91 1018.9
20260831130402 77 15 5.0 9.0 0.00 0.02 0.00 91 1018.7
20260831125401 77 19 5.0 10.0 0.00 0.02 0.00 91 1018.6
20260831124401 76 24 4.0 11.0 0.00 0.02 0.00 92 1018.5
20260831123401 76 17 1.0 6.0 0.00 0.02 0.00 95 1018.6
20260831122401 76 9 2.0 8.0 0.00 0.02 0.00 96 1018.5
20260831121402 75 12 0.0 5.0 0.00 0.02 0.00 96 1018.5
20260831120401 75 19 2.0 7.0 0.00 0.02 0.00 96 1018.5
20260831115402 75 51 1.0 4.0 0.00 0.02 0.00 97 1018.4
20260831114401 74 43 1.0 7.0 0.00 0.02 0.00 97 1018.4
20260831113402 74 22 2.0 5.0 0.00 0.02 0.00 97 1018.4
20260831112402 74 29 2.0 8.0 0.00 0.02 0.00 98 1018.0
20260831111424 74 40 1.0 5.0 0.00 0.02 0.00 98 1017.9
20260831110423 73 26 2.0 4.0 0.00 0.02 0.00 98 1017.9
20260831105402 72 117 0.0 0.0 0.00 0.02 0.00 97 1017.6
20260831104401 71 117 0.0 0.0 0.00 0.02 0.00 97 1017.8
20260831103402 71 117 0.0 0.0 0.00 0.02 0.00 97 1017.7
20260831102402 71 117 0.0 0.0 0.00 0.02 0.00 97 1017.7
20260831101425 71 117 0.0 0.0 0.00 0.02 0.00 97 1017.5
20260831100401 71 117 0.0 0.0 0.00 0.02 0.00 97 1017.3
20260831095402 71 117 0.0 0.0 0.00 0.02 0.00 97 1017.2
20260831094402 71 117 0.0 0.0 0.00 0.02 0.00 97 1017.3
20260831093425 71 117 0.0 0.0 0.00 0.02 0.00 97 1017.2
20260831092425 71 117 0.0 0.0 0.00 0.02 0.00 97 1017.2
20260831091403 71 117 0.0 0.0 0.00 0.02 0.00 96 1017.2
20260831090446 71 117 0.0 0.0 0.00 0.02 0.00 96 1017.2
20260831085402 72 117 0.0 0.0 0.00 0.02 0.00 96 1017.2
20260831084402 72 117 0.0 0.0 0.00 0.02 0.00 96 1017.3
20260831083402 72 117 0.0 0.0 0.00 0.02 0.00 96 1017.1
20260831082403 72 117 0.0 0.0 0.00 0.02 0.00 96 1017.2
20260831081402 72 117 0.0 0.0 0.00 0.02 0.00 96 1017.1
20260831080402 72 117 0.0 0.0 0.00 0.02 0.00 96 1017.1
20260831075403 72 117 0.0 0.0 0.00 0.02 0.00 96 1017.2
20260831074402 72 117 0.0 0.0 0.00 0.02 0.00 96 1017.3
20260831073403 72 117 0.0 0.0 0.00 0.02 0.00 96 1017.3
20260831072402 72 117 0.0 0.0 0.00 0.02 0.00 96 1017.4
20260831071403 72 117 0.0 0.0 0.00 0.02 0.00 96 1017.3
20260831070403 72 117 0.0 0.0 0.00 0.02 0.00 96 1017.3
20260831065402 72 117 0.0 0.0 0.00 0.02 0.00 96 1017.4
20260831064404 72 117 0.0 0.0 0.00 0.02 0.00 96 1017.4
20260831063403 72 117 0.0 0.0 0.00 0.02 0.00 96 1017.4
20260831062402 72 117 0.0 0.0 0.00 0.02 0.00 96 1017.4
20260831060359 73 117 0.0 0.0 0.00 0.02 0.00 96 1017.6
20260831055358 73 117 0.0 0.0 0.00 0.02 0.00 96 1017.7
20260831054400 73 117 0.0 0.0 0.00 0.02 0.00 96 1017.8
20260831053358 73 117 0.0 0.0 0.00 0.02 0.00 95 1017.6
20260831052358 73 117 0.0 0.0 0.00 0.02 0.00 95 1017.6
20260831051358 73 117 0.0 0.0 0.00 0.02 0.00 95 1017.5
20260831050359 73 117 0.0 0.0 0.00 0.02 0.00 95 1017.5
20260831045358 73 117 0.0 0.0 0.00 0.02 0.00 95 1017.6
20260831044419 74 117 0.0 0.0 0.00 0.02 0.00 95 1017.6
20260831043359 74 117 0.0 0.0 0.00 0.02 0.00 95 1017.6
20260831042419 74 117 0.0 0.0 0.00 0.02 0.00 95 1017.7
20260831041400 74 117 0.0 0.0 0.00 0.02 0.00 95 1017.7
20260831040359 74 117 0.0 0.0 0.00 0.04 0.02 95 1017.8
20260831035358 74 117 0.0 0.0 0.00 0.02 0.02 95 1017.7
20260831034359 74 117 0.0 0.0 0.00 0.02 0.02 95 1017.8
20260831033359 74 117 0.0 0.0 0.00 0.02 0.02 95 1017.7
20260831032419 74 117 0.0 0.0 0.00 0.02 0.02 95 1017.9
20260831031359 75 117 0.0 0.0 0.00 0.02 0.02 95 1017.9
20260831030420 75 117 0.0 2.0 0.00 0.02 0.02 94 1017.9
20260831025358 75 117 0.0 0.0 0.00 0.02 0.02 95 1018.0
20260831024421 75 117 0.0 0.0 0.00 0.02 0.02 94 1018.1
20260831023359 76 117 0.0 0.0 0.00 0.02 0.02 95 1018.0
20260831022359 76 117 0.0 0.0 0.00 0.02 0.02 94 1018.2
20260831021359 76 117 0.0 1.0 0.00 0.02 0.02 94 1018.1
20260831020358 76 117 0.0 1.0 0.00 0.02 0.02 94 1018.1
20260831015420 77 117 0.0 2.0 0.00 0.02 0.02 94 1018.2
20260831014359 77 117 0.0 2.0 0.00 0.02 0.02 94 1018.3
20260831013359 77 117 0.0 0.0 0.00 0.02 0.02 94 1018.2
20260831012359 77 117 0.0 0.0 0.00 0.02 0.02 93 1018.2
20260831011359 77 117 0.0 4.0 0.00 0.02 0.02 93 1018.0
20260831010359 78 117 0.0 3.0 0.00 0.02 0.02 93 1018.0
20260831005359 78 117 1.0 3.0 0.01 0.02 0.02 93 1017.9
20260831004359 78 118 1.0 4.0 0.01 0.02 0.02 92 1017.9
20260831003359 78 119 0.0 2.0 0.01 0.02 0.02 92 1017.9
20260831002359 78 119 0.0 0.0 0.00 0.01 0.01 92 1017.6
20260831001359 78 118 0.0 4.0 0.00 0.01 0.01 91 1017.5
20260831000359 78 128 2.0 5.0 0.00 0.01 0.01 91 1017.3
20260830235359 78 115 2.0 7.0 0.00 0.01 0.01 90 1017.3
20260830234359 79 111 1.0 3.0 0.00 0.01 0.01 90 1017.3
20260830233359 79 111 1.0 3.0 0.00 0.01 0.01 89 1017.3
20260830232359 80 111 1.0 3.0 0.00 0.01 0.01 89 1017.4
20260830231359 80 111 1.0 3.0 0.00 0.01 0.01 88 1017.5
20260830230359 81 112 0.0 5.0 0.00 0.01 0.01 88 1017.6
20260830225421 82 121 1.0 5.0 0.00 0.00 0.00 85 1017.5
20260830224359 83 127 3.0 7.0 0.00 0.00 0.00 82 1017.4
20260830223400 83 120 2.0 8.0 0.00 0.00 0.00 80 1017.4
20260830222359 84 101 2.0 9.0 0.00 0.00 0.00 79 1017.3
20260830221400 84 122 2.0 9.0 0.00 0.00 0.00 79 1017.3
20260830220401 84 118 2.0 9.0 0.00 0.00 0.00 78 1017.3
20260830215359 85 105 3.0 8.0 0.00 0.00 0.00 76 1017.2
20260830214400 85 98 4.0 9.0 0.00 0.00 0.00 74 1017.2
20260830213359 86 113 2.0 4.0 0.00 0.00 0.00 70 1017.0
20260830212421 87 117 1.0 5.0 0.00 0.00 0.00 68 1017.1
20260830211400 88 233 2.0 6.0 0.00 0.00 0.00 67 1017.1
20260830210400 88 141 3.0 7.0 0.00 0.00 0.00 66 1017.1
20260830205359 87 161 3.0 10.0 0.00 0.00 0.00 67 1017.3
20260830204400 89 261 1.0 10.0 0.00 0.00 0.00 65 1017.3